Погода в Кемчуге

Погода в Кемчуге : погода сейчас, прогноз погоды и архив. Всё, что Вы хотите узнать о погоде в Кемчуге!

Хотите узнать прогноз погоды в Кемчуге? Тогда Вам сюда: Погода в Кемчуге

Поиск расширенной информации на нашем сайте:

Другие новости

Новости СМИ2

Главная страница сайта

Новости сайта

03.07.2017

Напоминаем, что на нашем специализированном сайте Метеоцентр.Азия вы можете получить высокодетализированные автоматические прогнозы погоды по пунктам России, СНГ и мира в авиационном формате (включающие направление и скорость ветра, видимость, явления погоды, количество и форму облачности, нижнюю и верхнюю границу облачности).

Рекомендуем: пластиковая упаковка по низкой цене

Погода в Кемчуге - сегодня

Время (UTC), дата Ветер
(°,м/с) 
Видим.   Явления Облачность Т
(°С)
Тd
(°С)
f(%) Тe
(°С)
Pmin
(гПа)
dP
(гПа)
Po
(мм)
O2
(г/м3)
Тmin Tmax R s Состояние
почвы
00 18.09.17 160 (Ю) 20000 м    10/10 600 м кучево-дожд. 
[Cb cap]
+11.3 +7.9 80 +11  1008.6  -1.7  727  280  +5.1         
03 18.09.17 190 (Ю) 20000 м  в посл. час ливневой дождь  10/10 600 м кучево-дожд. 
[Cb cap]
+12 +9.5 85 +12  1006.9  -1.5  726  278           
06 18.09.17 210 (ЮЗ) 20000 м  в посл. час ливневой дождь  10/10 600 м кучево-дожд. 
[Cb cap]
+12.5 +11.3 92 +16  1006.9  0.1  726  278           
09 18.09.17 230 (ЮЗ) 20000 м    10/10 600 м кучево-дожд. 
[Cb cap]
+14.7 +12.2 85 +20  1006.8  0.2  726  275           
12 18.09.17 230 (ЮЗ) 20000 м  гроза без осадков  10/10 600 м кучево-дожд. 
[Cb cap]
+13.1 +11.8 92 +17  1007.5  0.5  727  277    +14.9     
15 18.09.17 180 (Ю) 50000 м  {гроза}  3/3 600 м кучево-дожд. 
[Cb cap]
+10.2 +8.2 87 +10  1009.2  1.1  727  281           
18 18.09.17 170 (Ю) 50000 м  {гроза}  3/3 600 м кучево-дожд. 
[Cb cap]
+7.5 +7 97 +8  1009.4  -0.1  727  284           
21 18.09.17 140 (ЮВ) 50000 м  {ливн. осадки}  10/10 600 м кучево-дожд. 
[Cb cap]
+8.3 +7.8 97 +9  1007.2  -2  726  282           
00 19.09.17 130 (ЮВ) 20000 м  {ливн. осадки}  10/10 600 м кучево-дожд. 
[Cb cap]
+9.1 +8.5 96 +8  1005  -2.1  724  281  +6.4    0.0     
03 19.09.17 тихо ()   4000 м  слаб. ливневой дождь  10/10 600 м кучево-дожд. 
[Cb cap]
+8.1 +7.7 97 +8  1006.8  1.6  725  282           
06 19.09.17 250 (З) 20000 м  {ливн. осадки}  10/10 600 м кучево-дожд. 
[Cb cap]
+10.9 +9.8 93 +13  1007.2  0.8  726  279           
09 19.09.17 310 (СЗ) 20000 м    9/8 600 м кучево-дожд., верхняя 
[Cb cap|Cs]
+12.6 +8.8 78 +13  1007.4  0.5  726  278           
12 19.09.17 220 (ЮЗ) 20000 м  {гроза, ливн. осадки}  8/3 600 м кучево-дожд., средняя, верхняя 
[Cb cap|Ac trans|Ci sp]
+8.9 +7.6 92 +10  1009.1  1.1  727  282    +13     
15 19.09.17 тихо ()   50000 м    5/3 600 м кучево-дожд., верхняя 
[Cb cap|Ci fib]
+6.3 +5.8 97 +6  1010.3  0.7  728  286           
18 19.09.17 190 (Ю) 50000 м    10/10 600 м кучево-дожд. 
[Cb cap]
+6.9 +6.4 97 +8  1010.4  0.3  728  285           
21 19.09.17 220 (ЮЗ) 12000 м  слаб. ливневой дождь  10/10 600 м кучево-дожд. 
[Cb cap]
+6.8 +6.4 97 +7  1010.7  0.3  728  285           
00 20.09.17 230 (ЮЗ) 4000 м  слаб. ливневой дождь  10/10 600 м кучево-дожд. 
[Cb cap]
+7 +6.6 97 +7  1011.8  729  285  +4.9       
03 20.09.17 260 (З) 4000 м  слаб. ливневой дождь  10/10 600 м кучево-дожд. 
[Cb cap]
+7.9 +7.5 97 +8  1013.3  1.6  730  285           
06 20.09.17 300 (СЗ) 10 км  слаб. ливневой дождь  10/10 600 м кучево-дожд. 
[Cb cap]
+9 +8.4 96 +8  1014.6  1.4  731  284           
09 20.09.17 280 (З) 20000 м  в посл. час ливневой дождь  10/10 600 м кучево-дожд. 
[Cb cap]
+9.7 +8.4 92 +9  1015.4  0.9  732  283           
12 20.09.17 280 (З) 4{10}  20000 м  в посл. час ливневой дождь  10/10 600 м кучево-дожд. 
[Cb cap]
+8.4 +7.3 93 +7  1017.6  1.9  733  285    +10.3     
15 20.09.17 230 (ЮЗ) 50000 м  в посл. час ливневой дождь  10/10 600 м кучево-дожд. 
[Cb cap]
+7.4 +6.9 97 +7  1018.4  0.6  734  287           
18 20.09.17 230 (ЮЗ) 9000 м  слаб. ливневой дождь  10/10 600 м кучево-дожд. 
[Cb cap]
+7.2 +6.8 97 +6  1018.1  -0.3  734  287           
21 20.09.17 260 (З) 4900 м  слаб. ливневой дождь  10/10 600 м кучево-дожд. 
[Cb cap]
+6.7 +6.3 97 +6  1017.7  -0.4  733  287           
00 21.09.17 210 (ЮЗ) 20000 м  {ливн. осадки}  9/9 600 м кучево-дожд. 
[Cb cap]
+6.1 +5.8 98 +6  1016.8  -1  732  288  +6.1       
Время (UTC), дата Ветер
(°,м/с) 
Видим.   Явления Облачность Т
(°С)
Тd
(°С)
f(%) Тe
(°С)
Pmin
(гПа)
dP
(гПа)
Po
(мм)
O2
(г/м3)
Тmin Tmax R s Состояние
почвы

Для получения пояснительной информации подведите курсор к названию столбца.

ПОГОДА в Кемчуге - архив

Всё, что Вы хотите узнать о погоде в Кемчуге - удобно и подробно!

Выберите нужную дату (начиная с 1 января 2015* года) и нажмите кнопку "Найти".
Будут отображены архивные сводки погоды по пункту Кемчуг, начиная с указанной даты.


Отображать данные в формате CSV (для использования в таблицах Excel)


Внимание! Наш архив погоды предназначен исключительно для личного некоммерческого использования в познавательных целях. Если Вам необходимы официальные справки о состоянии погоды (для производственных, юридических, коммерческих и т.п. целей), обращайтесь в органы Росгидромета.

*Примечание: данная дата относится к архиву по метеостанциям СССР (Россия, СНГ, Балтия).
Архив по метеостанциям Зарубежной Европы и Азии (кроме Китая) хранится 10 дней, по другим регионам земного шара (Китай, Африка, Америка, Австралия, Океания) - 1 день.

Кемчуг - район местоположения метеостанции


Название, широта, долгота, высота метеостанции:
Кемчуг 56.1°ш. 91.7°д. 332 м над ур. моря [Российская Федерация]

Дополнительная информация

В oтличие oт бoльшинства пoгoдных сайтoв мы публикуем пoдрoбную метеoинфoрмацию в детальнoм прoфессиoнальнoм фoрмате.

Характеристики температуры и влажнoсти вoздуха измеряются на высoте 2 м в тени вдали oт зданий и деревьев.
Скoрoсть ветра измеряется на высoте 10 м (на урoвне рoста челoвека скoрoсть ветра ниже в 1.5-2 раза). Если метеoстанция нахoдится в гoрoде или в лесу, тo скoрoсть ветра занижена на 2-4 м/с пo сравнению с oткрытым местoм. Скoрoсть ветра над акватoриями крупных рек и oзёр, а также на вершинах хoлмoв на 2-5 м/с выше, чем в oбычных услoвиях.
Атмoсфернoе давление в разных тoчках местнoсти мoжет значительнo oтличаться oт давления на метеoстанции, в зависимoсти oт услoвий рельефа (при пoдъёме на 10 м давление пoнижается примернo на 1 мм рт.ст.).